[[{"header":{"parameterUnit":"m.s-1","parameterCategory":1,"la1":30.2991,"la2":30.254,"lo1":-89.0895,"lo2":-89.0444,"dy":0.0017,"dx":0.0017,"nx":28,"ny":28,"refTime":"2024-06-10T21:00:00:Z","depth":0,"parameterNumber":2,"parameterNumberName":"U-component_of_WINDS"},"data":[0,0,0,0,0,0,0,0,0,0,0,0,0,0,0,0,0,0,0,0,0,0,0,0,0,0,0,0,0,0,0,0,0,0,0,0,0,0,0,0,0,0,0,0,0,0,0,0,0,0,0,0,0,0,0,0,0,0,1.337,1.3371,0,1.3465,1.3466,1.3467,1.3475,1.3474,1.3473,1.3472,1.3572,1.3576,1.358,0,0,0,0,0,0,0,0,0,0,0,0,0,1.32,1.3203,1.337,1.3371,1.3372,1.3465,1.3466,1.3467,1.3475,1.3474,1.3473,1.3471,1.3571,1.3576,1.358,0,0,0,0,0,0,0,0,0,0,0,0,0,1.3282,1.3204,1.337,1.3387,1.339,1.3464,1.3466,1.3468,1.3475,1.3474,1.3472,1.3471,1.357,1.3575,1.3581,1.3645,0,0,1.3597,1.36,0,0,0,0,0,0,0,0,1.3278,1.3289,1.3384,1.3386,1.3389,1.3456,1.3443,1.3527,1.3476,1.3443,1.3472,1.347,1.3535,1.3544,1.3565,1.365,1.3654,1.3598,1.3601,1.3603,1.3605,0,0,0,0,0,0,0,1.3272,1.3285,1.3408,1.3385,1.3388,1.3392,1.3402,1.3459,1.3497,1.3446,1.3446,1.3457,1.3537,1.356,1.3567,1.3656,1.3598,1.3602,1.3606,1.3608,1.3802,1.3803,0,0,0,0,0,0,1.3262,1.328,1.3405,1.341,1.3328,1.3396,1.3407,1.3436,1.3496,1.3504,1.3459,1.3457,1.3551,1.3561,1.3571,1.3651,1.3603,1.3608,1.3612,1.38,1.3802,1.3804,0,0,0,0,0,0,1.3259,1.3273,1.3401,1.3345,1.3362,1.3401,1.3433,1.3439,1.3462,1.3506,1.3513,1.3475,1.355,1.3563,1.3627,1.3655,1.3611,1.3616,1.3798,1.38,1.3803,1.3812,0,0,0,0,0,0,1.3254,1.3272,1.3296,1.3346,1.3365,1.3454,1.3435,1.3442,1.3471,1.347,1.3523,1.353,1.355,1.3619,1.3632,1.3662,1.362,1.3795,1.3799,1.3802,1.381,1.3815,1.382,0,0,0,0,0,1.3248,1.3295,1.3297,1.3312,1.3395,1.3455,1.3466,1.3487,1.3473,1.3498,1.3527,1.3529,1.365,1.3625,1.3641,1.3672,1.3793,1.3798,1.3802,1.3807,1.3814,1.382,0,0,0,0,0,0,1.3246,1.3301,1.3304,1.3368,1.3407,1.3456,1.3488,1.3493,1.3537,1.3534,1.3559,1.3571,1.3635,1.366,1.3631,1.3739,1.3721,1.3728,1.372,1.3726,1.3731,1.3723,1.3625,0,0,0,0,0,1.3254,1.3297,1.3343,1.3396,1.3415,1.3448,1.3475,1.3488,1.3529,1.3546,1.3579,1.362,1.3668,1.3699,1.3745,1.3814,1.3827,1.3844,1.3849,1.3853,1.3859,1.3899,1.3907,1.3818,1.3818,1.3818,0,0,1.3269,1.3304,1.333,1.3396,1.3428,1.3473,1.3462,1.351,1.3545,1.3554,1.3615,1.3642,1.369,1.3757,1.3788,1.378,1.3887,1.3858,1.3861,1.3865,1.3904,1.3913,1.392,1.3821,1.382,1.382,0,0,1.3319,1.335,1.3398,1.343,1.3478,1.3501,1.3512,1.3562,1.3579,1.3642,1.365,1.3693,1.3774,1.3809,1.3837,1.3905,1.3908,1.3919,1.3945,1.3984,1.3991,1.3998,1.4022,1.4031,1.3925,1.3925,1.3925,0,1.3332,1.34,1.3422,1.3471,1.35,1.3511,1.3561,1.3592,1.3652,1.3673,1.3664,1.3767,1.38,1.3876,1.3893,1.3915,1.3931,1.3912,1.3988,1.3995,1.4001,1.4025,1.4034,1.3926,1.3926,1.3926,1.3926,0,1.3414,1.3461,1.3495,1.3553,1.3587,1.3635,1.3666,1.3699,1.371,1.3734,1.3799,1.384,1.3895,1.3915,1.3926,1.3994,1.3987,1.3983,1.3964,1.401,1.4033,1.4042,1.3928,1.3927,1.3927,1.3927,0,0,1.3463,1.3535,1.3547,1.3575,1.363,1.3668,1.3719,1.3772,1.38,1.3843,1.3887,1.3957,1.3954,1.3986,1.4002,1.4036,1.4089,1.4028,1.403,1.4038,1.4167,1.4169,1.4179,1.4093,1.4094,1.4096,1.4163,0,1.3519,1.3608,1.3632,1.3708,1.3753,1.3766,1.3811,1.3851,1.3876,1.3919,1.3948,1.3997,1.3989,1.4009,1.4043,1.4075,1.4115,1.4071,1.4135,1.4137,1.4121,1.4191,1.4193,1.4254,1.4172,1.4174,1.4175,0,1.3596,1.3641,1.3722,1.3774,1.3794,1.3833,1.3885,1.3926,1.3973,1.399,1.4027,1.404,1.4096,1.4076,1.4155,1.4124,1.4152,1.4172,1.4175,1.4181,1.4157,1.4198,1.4274,1.4283,1.4189,1.4188,1.4187,0,1.3624,1.3705,1.3764,1.3787,1.3849,1.3877,1.3904,1.395,1.3982,1.4028,1.405,1.4103,1.4132,1.4174,1.4202,1.4185,1.4279,1.4261,1.4294,1.4294,1.4312,1.431,1.4392,1.4332,1.4332,1.4332,1.4331,0,1.3684,1.3733,1.3777,1.3813,1.387,1.3898,1.3953,1.3981,1.4022,1.4066,1.4081,1.4122,1.4157,1.4204,1.4227,1.4289,1.4302,1.4318,1.4323,1.4316,1.4314,1.4333,1.433,1.4334,1.4333,1.4333,1.4333,0,1.3722,1.3754,1.382,1.3875,1.389,1.3929,1.3976,1.4013,1.404,1.4095,1.411,1.4152,1.4208,1.4241,1.4311,1.4327,1.4396,1.44,1.4379,1.4382,1.4413,1.441,1.451,1.4525,1.4455,1.4456,1.4456,0,1.3758,1.3796,1.3855,1.3885,1.3913,1.3961,1.3994,1.4024,1.4058,1.4117,1.4147,1.4204,1.425,1.4339,1.4377,1.4432,1.4437,1.4469,1.4445,1.4437,1.4438,1.4435,1.4439,1.4472,1.4473,1.4473,1.4474,0,1.3817,1.3832,1.3878,1.3931,1.397,1.4013,1.4056,1.408,1.4118,1.4156,1.4213,1.4249,1.4322,1.4379,1.4437,1.4468,1.4478,1.4481,1.4492,1.4484,1.447,1.4478,1.4389,1.4478,1.4478,1.4477,1.4477,1.4477,1.3855,1.389,1.3938,1.399,1.4026,1.4067,1.4105,1.4137,1.4185,1.4245,1.4262,1.4322,1.4371,1.4451,1.4483,1.4532,1.4527,1.4542,1.4546,1.4549,1.455,1.4464,1.4543,1.4543,1.4543,1.4543,1.4542,0,1.3915,1.3947,1.3995,1.4055,1.4097,1.4103,1.4152,1.4187,1.4239,1.4284,1.433,1.4397,1.4453,1.4497,1.4555,1.4586,1.4592,1.46,1.4597,1.4604,1.4551,1.4535,1.4594,1.4594,1.4594,1.4594,1.4594,1.4594,1.3951,1.4011,1.4032,1.4112,1.4144,1.4203,1.423,1.4269,1.4305,1.4379,1.4425,1.4453,1.4499,1.4561,1.4613,1.4625,1.4645,1.4652,1.4665,1.4614,1.4608,1.4603,1.4588,1.4657,1.4657,1.4715,1.4715,1.4716]},{"header":{"parameterUnit":"m.s-1","parameterCategory":1,"la1":30.2991,"la2":30.254,"lo1":-89.0895,"lo2":-89.0444,"dy":0.0017,"dx":0.0017,"nx":28,"ny":28,"refTime":"2024-06-10T21:00:00:Z","depth":0,"parameterNumber":3,"parameterNumberName":"V-component_of_WINDS"},"data":[0,0,0,0,0,0,0,0,0,0,0,0,0,0,0,0,0,0,0,0,0,0,0,0,0,0,0,0,0,0,0,0,0,0,0,0,0,0,0,0,0,0,0,0,0,0,0,0,0,0,0,0,0,0,0,0,0,0,2.3707,2.3707,0,2.3679,2.3679,2.3679,2.3637,2.3636,2.3635,2.3635,2.3606,2.3606,2.3606,0,0,0,0,0,0,0,0,0,0,0,0,0,2.3723,2.3723,2.3707,2.3707,2.3706,2.3679,2.3679,2.3678,2.3637,2.3636,2.3635,2.3634,2.3606,2.3606,2.3606,0,0,0,0,0,0,0,0,0,0,0,0,0,2.3708,2.3723,2.3707,2.3682,2.368,2.3679,2.3679,2.3678,2.3637,2.3636,2.3635,2.3634,2.3606,2.3606,2.3606,2.3628,0,0,2.3606,2.3606,0,0,0,0,0,0,0,0,2.3709,2.3707,2.3686,2.3684,2.3681,2.366,2.3674,2.3661,2.3637,2.3653,2.3634,2.3633,2.3625,2.3623,2.3621,2.3626,2.3625,2.3606,2.3606,2.3606,2.3606,0,0,0,0,0,0,0,2.371,2.3708,2.3696,2.3686,2.3683,2.3672,2.3669,2.3671,2.3646,2.3652,2.3649,2.3646,2.3623,2.3621,2.362,2.3625,2.3606,2.3606,2.3606,2.3605,2.3646,2.3647,0,0,0,0,0,0,2.3714,2.3709,2.3697,2.3695,2.3692,2.3673,2.3669,2.3668,2.3646,2.3641,2.3647,2.3644,2.3621,2.362,2.3618,2.3643,2.3606,2.3605,2.3605,2.3645,2.3646,2.3647,0,0,0,0,0,0,2.3715,2.3714,2.3698,2.3701,2.3698,2.3674,2.3673,2.3668,2.3665,2.3642,2.3637,2.3649,2.3621,2.3619,2.3625,2.3641,2.3605,2.3605,2.3643,2.3645,2.3647,2.3691,0,0,0,0,0,0,2.3716,2.3714,2.3723,2.3702,2.3698,2.3706,2.3674,2.3668,2.3665,2.3661,2.3643,2.3638,2.3619,2.3626,2.3625,2.364,2.3605,2.3642,2.3644,2.3646,2.3688,2.3694,2.3699,0,0,0,0,0,2.3716,2.3736,2.3723,2.3722,2.3709,2.3707,2.3705,2.3683,2.3667,2.3675,2.3659,2.3639,2.3639,2.3627,2.3626,2.3641,2.3641,2.3644,2.3646,2.3686,2.3693,2.3699,0,0,0,0,0,0,2.376,2.3733,2.3719,2.3732,2.3722,2.37,2.371,2.3691,2.3686,2.3683,2.3655,2.3651,2.3662,2.3651,2.3639,2.366,2.3637,2.3639,2.3667,2.3674,2.3679,2.3682,2.3605,0,0,0,0,0,2.3771,2.3773,2.3749,2.3763,2.3759,2.3735,2.3734,2.3717,2.3706,2.3702,2.3687,2.3676,2.3674,2.3673,2.3669,2.3685,2.3681,2.3695,2.3701,2.3705,2.3709,2.3716,2.3723,2.3656,2.3656,2.3656,0,0,2.3795,2.378,2.3783,2.3772,2.3762,2.3764,2.3732,2.3736,2.3737,2.3702,2.3708,2.3696,2.3683,2.3695,2.3699,2.3687,2.3725,2.3709,2.3712,2.3713,2.372,2.3726,2.3732,2.3657,2.3657,2.3657,0,0,2.3839,2.3828,2.3839,2.3829,2.3815,2.3798,2.3801,2.3781,2.3772,2.3777,2.3751,2.3751,2.3748,2.3739,2.3734,2.3773,2.3754,2.3772,2.3802,2.381,2.3815,2.382,2.3834,2.384,2.3775,2.3775,2.3775,0,2.387,2.3872,2.3847,2.3852,2.3848,2.3815,2.3826,2.3818,2.3803,2.3801,2.3787,2.3781,2.3769,2.3779,2.3788,2.3784,2.3787,2.3775,2.3816,2.3821,2.3824,2.3838,2.3844,2.3777,2.3777,2.3777,2.3776,0,2.3912,2.3913,2.3924,2.391,2.3907,2.3915,2.389,2.3889,2.3872,2.3857,2.3863,2.3847,2.384,2.384,2.3824,2.3847,2.384,2.3821,2.3797,2.3834,2.3846,2.3851,2.3781,2.378,2.3779,2.3778,0,0,2.3985,2.3956,2.396,2.3954,2.3934,2.3935,2.394,2.3933,2.3933,2.3923,2.3928,2.3924,2.3906,2.3901,2.3883,2.389,2.3922,2.387,2.3869,2.3881,2.3947,2.3963,2.397,2.3908,2.3909,2.3909,2.3949,0,2.4027,2.4036,2.4012,2.4027,2.4028,2.3996,2.4001,2.399,2.3975,2.3974,2.3957,2.3956,2.3932,2.3928,2.3933,2.3917,2.3935,2.3913,2.3913,2.3913,2.392,2.3976,2.3993,2.4031,2.3953,2.3954,2.3955,0,2.4078,2.407,2.4085,2.4064,2.4064,2.4069,2.406,2.4058,2.4044,2.4033,2.4026,2.4004,2.4008,2.3983,2.3987,2.3973,2.3971,2.3962,2.3963,2.3964,2.3938,2.398,2.4042,2.4049,2.3962,2.3961,2.3961,0,2.4132,2.4125,2.4133,2.4128,2.4103,2.4108,2.4097,2.4082,2.4078,2.407,2.4067,2.4059,2.4055,2.4049,2.4026,2.401,2.4033,2.4006,2.4025,2.4026,2.4034,2.4034,2.4098,2.4029,2.4028,2.4028,2.4028,0,2.4182,2.4193,2.4157,2.4163,2.4173,2.4145,2.4156,2.4143,2.4129,2.4131,2.4101,2.4104,2.4071,2.407,2.4051,2.4058,2.4056,2.4047,2.4043,2.4052,2.4053,2.4052,2.4049,2.403,2.4029,2.4029,2.4029,0,2.4246,2.4222,2.4229,2.4204,2.4198,2.4208,2.4186,2.419,2.4172,2.4175,2.4174,2.4147,2.4143,2.4119,2.4109,2.4097,2.4111,2.41,2.4117,2.4114,2.4135,2.4134,2.4202,2.421,2.4134,2.4134,2.4135,0,2.4281,2.4288,2.4264,2.4263,2.4254,2.4253,2.425,2.4221,2.4218,2.4201,2.4207,2.4201,2.4195,2.4191,2.417,2.4163,2.4153,2.4177,2.4152,2.416,2.4155,2.4156,2.4157,2.4183,2.4184,2.4185,2.4186,0,2.4346,2.4333,2.4329,2.4321,2.4317,2.4309,2.4299,2.43,2.4268,2.4266,2.4262,2.4258,2.4248,2.4242,2.4231,2.422,2.4198,2.4193,2.4198,2.4208,2.4218,2.4215,2.4134,2.4193,2.4192,2.4192,2.4191,2.4191,2.4397,2.4402,2.4386,2.4383,2.4372,2.4363,2.4365,2.4348,2.4344,2.4334,2.4316,2.4315,2.4299,2.4282,2.4272,2.427,2.4257,2.4263,2.4265,2.4267,2.4272,2.4216,2.4268,2.4267,2.4267,2.4267,2.4267,0,2.4462,2.445,2.4446,2.4433,2.443,2.4408,2.4396,2.4395,2.4394,2.4381,2.4375,2.437,2.4364,2.4342,2.4334,2.4337,2.4327,2.4336,2.4337,2.4335,2.4284,2.4282,2.4344,2.4344,2.4344,2.4344,2.4344,2.4344,2.4496,2.4504,2.4489,2.4491,2.4478,2.4477,2.4472,2.4463,2.4453,2.4449,2.4444,2.4429,2.4412,2.4402,2.4395,2.4389,2.4388,2.4401,2.4392,2.4345,2.4338,2.4331,2.4329,2.4401,2.4401,2.4443,2.4443,2.4444]}]]